Weather History for KOWB - August, 2013

Change the Weather History Date:

Saturday, August 17, 2013

  Actual Average Record
Temperature  
Mean Temperature 70 °F -  
Max Temperature 77 °F 89 °F 102 °F (1936)
Min Temperature 63 °F 67 °F 32 °F (2004)
Cooling Degree Days 5    
Growing Degree Days 20 (Base 50)    
Moisture  
Dew Point 64 °F    
Average Humidity 82    
Maximum Humidity 97    
Minimum Humidity 69    
Precipitation  
Precipitation 0.05 in - - ()
Sea Level Pressure  
Sea Level Pressure 30.11 in    
Wind  
Wind Speed 6 mph (NE)    
Max Wind Speed 10 mph    
Max Gust Speed -    
Visibility 9 miles    
Events Rain , Thunderstorm    
Averages and records for this station are not official NWS values.
T = Trace of Precipitation, MM = Missing Value Source: NWS Daily Summary

Daily Weather History Graph

Daily Weather History Graph

Search for Another Location

Airport or City:

Trip Planner

Search our weather history database for the weather conditions in past years. The results will help you decide how hot, cold, wet, or windy it might be!

Date:

Astronomy

Aug. 17, 2013 Rise Set
Actual Time 6:06 AM CDT 7:38 PM CDT
Civil Twilight 5:38 AM CDT 8:06 PM CDT
Nautical Twilight 5:04 AM CDT 8:39 PM CDT
Astronomical Twilight 4:29 AM CDT 9:14 PM CDT
Moon 4:51 PM CDT (8/17) 2:10 AM CDT (8/17)
Length of Visible Light 14h 27m
Length of Day
13h 32m
Waxing Gibbous, 84% of the Moon is Illuminated
Aug 17
Waxing Gibbous
Aug 20
Full
Aug 28
Last Quarter
Sep 5
New
Sep 12
First Quarter

Hourly Weather History & Observations

Time (CDT) Temp. Dew Point Humidity Pressure Visibility Wind Dir Wind Speed Gust Speed Precip Events Conditions
12:56 AM 68.9 °F 61.0 °F 76% 30.11 in 10.0 mi NE 5.8 mph - N/A   Partly Cloudy
1:56 AM 68.9 °F 61.0 °F 76% 30.10 in 10.0 mi Variable 3.5 mph - N/A   Partly Cloudy
2:25 AM 69.8 °F 60.8 °F 73% 30.10 in 10.0 mi NNE 3.5 mph - 0.00 in Rain , Thunderstorm Light Thunderstorms and Rain
2:56 AM 68.9 °F 61.0 °F 76% 30.10 in 10.0 mi ENE 4.6 mph - 0.00 in Thunderstorm Thunderstorm
3:56 AM 65.8 °F 61.9 °F 87% 30.11 in 10.0 mi NE 3.5 mph - 0.00 in Rain Light Rain
4:37 AM 66.2 °F 62.6 °F 88% 30.12 in 8.0 mi NNE 3.5 mph - 0.01 in Rain Light Rain
4:56 AM 64.9 °F 63.9 °F 96% 30.11 in 7.0 mi NE 3.5 mph - 0.02 in Rain Light Rain
5:56 AM 64.9 °F 63.9 °F 96% 30.12 in 7.0 mi NE 8.1 mph - 0.01 in Rain Light Rain
6:56 AM 63.9 °F 63.0 °F 97% 30.14 in 7.0 mi NNE 5.8 mph - 0.00 in Rain Light Rain
7:56 AM 64.9 °F 63.9 °F 96% 30.14 in 7.0 mi NNE 5.8 mph - 0.00 in Rain Light Rain
8:56 AM 65.8 °F 64.9 °F 97% 30.15 in 7.0 mi East 8.1 mph - 0.00 in   Mostly Cloudy
9:56 AM 68.9 °F 64.9 °F 87% 30.16 in 7.0 mi NE 9.2 mph - N/A   Scattered Clouds
10:56 AM 70.0 °F 64.9 °F 84% 30.16 in 10.0 mi ENE 8.1 mph - N/A   Mostly Cloudy
11:56 AM 72.9 °F 65.8 °F 79% 30.14 in 10.0 mi NE 6.9 mph - N/A   Scattered Clouds
12:56 PM 72.0 °F 65.8 °F 81% 30.13 in 10.0 mi NNE 6.9 mph - N/A   Mostly Cloudy
1:56 PM 72.0 °F 64.9 °F 78% 30.12 in 8.0 mi ENE 8.1 mph - N/A   Scattered Clouds
2:56 PM 73.9 °F 65.8 °F 76% 30.11 in 8.0 mi NNE 5.8 mph - N/A   Partly Cloudy
3:56 PM 75.9 °F 65.8 °F 71% 30.10 in 8.0 mi ENE 10.4 mph - N/A   Partly Cloudy
4:56 PM 77.0 °F 66.9 °F 71% 30.09 in 10.0 mi ENE 9.2 mph - N/A   Scattered Clouds
5:56 PM 77.9 °F 66.9 °F 69% 30.08 in 10.0 mi NNE 8.1 mph - N/A   Scattered Clouds
6:56 PM 74.8 °F 65.8 °F 73% 30.08 in 10.0 mi NNE 5.8 mph - N/A   Partly Cloudy
7:56 PM 73.9 °F 64.9 °F 73% 30.09 in 10.0 mi NE 6.9 mph - N/A   Scattered Clouds
8:56 PM 73.4 °F 66.2 °F 78% 30.09 in 10.0 mi NNE 4.6 mph - N/A   Scattered Clouds
9:56 PM 72.0 °F 63.9 °F 76% 30.10 in 10.0 mi NE 5.8 mph - N/A   Scattered Clouds
10:56 PM 72.0 °F 64.9 °F 78% 30.11 in 10.0 mi Variable 5.8 mph - N/A   Mostly Cloudy
11:18 PM 69.8 °F 66.2 °F 88% 30.11 in 6.0 mi Calm Calm - 0.01 in Rain Light Rain
11:56 PM 68.9 °F 68.0 °F 97% 30.10 in 10.0 mi Calm Calm - 0.02 in   Mostly Cloudy